This demonstration page uses our WeatherBlox Daily Observations layout. Learn more.

Left ArrowRight Arrow

Hourly Observations for August 8, 2022

Temp ( °F °C ) Dew Point ( °F °C ) Humidity (%) Winds ( mph kmh ) Pressure ( in mb ) Visibility ( mi km ) Precip ( " mm )
12:56 am 00:56 Mostly Cloudy with Thunderstorms 72 22 68 20 88 88 WNW 16 26 30.03 1017 9 14 0.00 0.00
1:56 am 01:56 Mostly Cloudy with Light Rain 70 21.1 67 19.7 92 92 NNW 9 15 29.98 1015 10 16 0.00 0.00
2:56 am 02:56 Cloudy 70 21 67 19.6 92 92 NNW 12 19 30.00 1016 10 16 0.00 0.00
3:56 am 03:56 Cloudy 69 20.5 65 18.6 89 89 NNW 10 17 30.03 1017 10 16 0.00 0.00
4:56 am 04:56 Cloudy 69 20.3 64 17.9 86 86 NNW 8 13 30.06 1018 10 16 0.00 0.00
5:56 am 05:56 Mostly Cloudy 68 20.1 63 17.3 84 84 NNW 10 17 30.07 1018 10 16 0.00 0.00
6:56 am 06:56 Cloudy 68 19.8 63 17 84 84 N 12 19 30.09 1019 10 16 0.00 0.00
7:56 am 07:56 Cloudy 67 19.3 60 15.6 79 79 N 13 20 30.10 1019 10 16 0.00 0.00
8:56 am 08:56 Mostly Cloudy 67 19.4 59 15 76 76 N 12 19 30.11 1020 10 16 0.00 0.00
9:56 am 09:56 Mostly Sunny 70 21.2 60 15.5 70 70 NNW 9 15 30.14 1021 10 16 0.00 0.00
10:56 am 10:56 Mostly Sunny 73 22.9 59 15.2 62 62 NNW 9 15 30.13 1020 10 16 0.00 0.00
11:56 am 11:56 Sunny 76 24.4 58 14.2 53 53 N 8 13 30.14 1021 10 16 0.00 0.00
12:56 pm 12:56 Sunny 77 25.1 57 13.9 50 50 N 7 11 30.13 1020 10 16 0.00 0.00
1:56 pm 13:56 Sunny 79 26.1 56 13.2 45 45 NW 7 11 30.12 1020 10 16 0.00 0.00
2:56 pm 14:56 Sunny 81 27.2 56 13.2 42 42 NE 9 15 30.11 1020 10 16 0.00 0.00
3:56 pm 15:56 Sunny 82 27.5 56 13.1 41 41 NNE 9 15 30.08 1019 10 16 0.00 0.00
4:56 pm 16:56 Sunny 82 27.8 57 13.7 42 42 NNE 9 15 30.06 1018 10 16 0.00 0.00
5:56 pm 17:56 Sunny 82 27.5 56 13.4 42 42 NNE 7 11 30.05 1018 10 16 0.00 0.00
6:56 pm 18:56 Sunny 81 27.1 57 14.1 45 45 NNE 7 11 30.05 1018 10 16 0.00 0.00
7:56 pm 19:56 Sunny 77 25 58 14.7 53 53 ENE 7 11 30.06 1018 10 16 0.00 0.00
8:56 pm 20:56 Clear 73 22.8 59 14.9 61 61 ENE 6 9 30.09 1019 10 16 0.00 0.00
9:56 pm 21:56 Clear 71 21.6 59 15.2 67 67 NE 3 6 30.11 1020 10 16 0.00 0.00
10:56 pm 22:56 Clear 70 21 60 15.3 70 70 NNE 5 7 30.11 1020 10 16 0.00 0.00
11:56 pm 23:56 Clear 69 20.4 59 15.2 72 72 NE 5 7 30.12 1020 10 16 0.00 0.00

Powered by AerisWeather